Location: *
(49.8044°N, 4.0558°E)
Time: 00:07:36
(UTC+00:00)

STARLINK-1202 - Pass Details

Date: 09 April 2020
Orbit: 549 x 550 km, 53.0° (Epoch: 30 May)

Event Time Altitude Azimuth Distance (km) Brightness Sun altitude
Rises 20:29:38 0° 293° (WNW) 2,728 8.6 -18.3°
Reaches altitude 10° 20:31:55 10° 289° (WNW) 1,831 7.3 -18.6°
Maximum altitude 20:35:58 54° 212° (SSW) 674 3.9 -19.1°
Enters shadow 20:36:51 44° 168° (SSE) 767 3.9 -19.2°
